Time,TemperatureF,DewpointF,PressureIn,WindDirection,WindDirectionDegrees,WindSpeedMPH,WindSpeedGustMPH,Humidity,HourlyPrecipIn,Conditions,Clouds,dailyrainin,SoftwareType,DateUTC
2013-01-15 00:01:00,23.0,19.0,28.53,SE,137,0.0,2.0,83,0.00,,,0.00,,2013-01-15 08:01:00,
2013-01-15 00:11:00,23.0,19.0,28.53,SE,137,0.0,2.0,83,0.00,,,0.00,,2013-01-15 08:11:00,
2013-01-15 00:22:00,22.0,18.0,28.53,SE,136,0.0,1.0,85,0.00,,,0.00,,2013-01-15 08:22:00,
2013-01-15 00:32:00,22.0,18.0,28.53,SE,136,0.0,0.0,86,0.00,,,0.00,,2013-01-15 08:32:00,
2013-01-15 00:42:00,22.0,18.0,28.53,SE,136,0.0,0.0,86,0.00,,,0.00,,2013-01-15 08:42:00,
2013-01-15 00:52:00,21.0,18.0,28.54,SE,136,0.0,0.0,87,0.00,,,0.00,,2013-01-15 08:52:00,
2013-01-15 01:02:00,21.0,18.0,28.55,SE,136,0.0,0.0,89,0.00,,,0.00,,2013-01-15 09:02:00,
2013-01-15 01:11:00,21.0,18.0,28.55,SE,136,0.0,0.0,89,0.00,,,0.00,,2013-01-15 09:11:00,
2013-01-15 01:22:00,21.0,19.0,28.56,SE,137,0.0,1.0,90,0.00,,,0.00,,2013-01-15 09:22:00,
2013-01-15 01:33:00,21.0,19.0,28.57,ESE,116,0.0,1.0,90,0.00,,,0.00,,2013-01-15 09:33:00,
2013-01-15 01:42:00,21.0,19.0,28.57,ESE,116,0.0,1.0,90,0.00,,,0.00,,2013-01-15 09:42:00,
2013-01-15 01:52:00,22.0,19.0,28.57,ESE,116,0.0,0.0,88,0.00,,,0.00,,2013-01-15 09:52:00,
2013-01-15 02:02:00,21.0,18.0,28.57,ESE,117,0.0,1.0,88,0.00,,,0.00,,2013-01-15 10:02:00,
2013-01-15 02:11:00,21.0,18.0,28.57,ESE,117,0.0,1.0,88,0.00,,,0.00,,2013-01-15 10:11:00,
2013-01-15 02:22:00,21.0,18.0,28.58,ESE,118,0.0,0.0,89,0.00,,,0.00,,2013-01-15 10:22:00,
2013-01-15 02:32:00,21.0,18.0,28.58,ESE,119,0.0,1.0,89,0.00,,,0.00,,2013-01-15 10:32:00,
2013-01-15 02:42:00,21.0,18.0,28.58,ESE,119,0.0,1.0,89,0.00,,,0.00,,2013-01-15 10:42:00,
2013-01-15 02:52:00,21.0,18.0,28.58,ESE,119,0.0,1.0,89,0.00,,,0.00,,2013-01-15 10:52:00,
2013-01-15 03:02:00,21.0,18.0,28.58,ESE,118,0.0,0.0,88,0.00,,,0.00,,2013-01-15 11:02:00,
2013-01-15 03:11:00,21.0,18.0,28.58,ESE,118,0.0,0.0,88,0.00,,,0.00,,2013-01-15 11:11:00,
2013-01-15 03:22:00,20.0,17.0,28.58,ESE,118,0.0,0.0,89,0.00,,,0.00,,2013-01-15 11:22:00,
2013-01-15 03:32:00,20.0,18.0,28.59,ESE,118,0.0,1.0,91,0.00,,,0.00,,2013-01-15 11:32:00,
2013-01-15 03:42:00,20.0,18.0,28.59,ESE,118,0.0,1.0,91,0.00,,,0.00,,2013-01-15 11:42:00,
2013-01-15 03:53:00,21.0,19.0,28.59,East,84,0.0,0.0,90,0.00,,,0.00,,2013-01-15 11:53:00,
2013-01-15 04:02:00,21.0,19.0,28.59,East,86,0.0,0.0,90,0.00,,,0.00,,2013-01-15 12:02:00,
2013-01-15 04:12:00,21.0,19.0,28.59,East,86,0.0,0.0,90,0.00,,,0.00,,2013-01-15 12:12:00,
2013-01-15 04:22:00,20.0,18.0,28.59,East,86,0.0,1.0,90,0.00,,,0.00,,2013-01-15 12:22:00,
2013-01-15 04:32:00,20.0,18.0,28.58,East,86,0.0,1.0,90,0.00,,,0.00,,2013-01-15 12:32:00,
2013-01-15 04:42:00,20.0,18.0,28.58,East,86,0.0,1.0,90,0.00,,,0.00,,2013-01-15 12:42:00,
2013-01-15 04:53:00,19.0,17.0,28.58,East,86,0.0,0.0,91,0.00,,,0.00,,2013-01-15 12:53:00,
2013-01-15 05:02:00,19.0,17.0,28.59,East,86,0.0,1.0,91,0.00,,,0.00,,2013-01-15 13:02:00,
2013-01-15 05:12:00,19.0,17.0,28.59,East,86,0.0,1.0,91,0.00,,,0.00,,2013-01-15 13:12:00,
2013-01-15 05:22:00,19.0,17.0,28.58,East,86,0.0,0.0,91,0.00,,,0.00,,2013-01-15 13:22:00,
2013-01-15 05:32:00,19.0,17.0,28.58,East,86,0.0,0.0,92,0.00,,,0.00,,2013-01-15 13:32:00,
2013-01-15 05:42:00,19.0,17.0,28.58,East,86,0.0,0.0,92,0.00,,,0.00,,2013-01-15 13:42:00,
2013-01-15 05:53:00,19.0,17.0,28.59,East,86,0.0,0.0,92,0.00,,,0.00,,2013-01-15 13:53:00,
2013-01-15 06:02:00,19.0,17.0,28.59,East,86,0.0,0.0,92,0.00,,,0.00,,2013-01-15 14:02:00,
2013-01-15 06:12:00,19.0,17.0,28.59,East,86,0.0,0.0,92,0.00,,,0.00,,2013-01-15 14:12:00,
2013-01-15 06:22:00,18.0,16.0,28.59,East,86,0.0,0.0,92,0.00,,,0.00,,2013-01-15 14:22:00,
2013-01-15 06:32:00,18.0,16.0,28.60,East,86,0.0,0.0,92,0.00,,,0.00,,2013-01-15 14:32:00,
2013-01-15 06:43:00,18.0,16.0,28.60,East,86,0.0,0.0,92,0.00,,,0.00,,2013-01-15 14:43:00,
2013-01-15 06:53:00,18.0,16.0,28.61,East,86,0.0,1.0,93,0.00,,,0.00,,2013-01-15 14:53:00,
2013-01-15 07:02:00,18.0,16.0,28.61,WSW,250,0.0,1.0,93,0.00,,,0.00,,2013-01-15 15:02:00,
2013-01-15 07:12:00,18.0,16.0,28.61,WSW,250,0.0,1.0,93,0.00,,,0.00,,2013-01-15 15:12:00,
2013-01-15 07:23:00,19.0,17.0,28.61,WSW,242,0.0,3.0,93,0.00,,,0.00,,2013-01-15 15:23:00,
2013-01-15 07:32:00,20.0,18.0,28.62,SW,217,0.0,0.0,92,0.00,,,0.00,,2013-01-15 15:32:00,
2013-01-15 07:43:00,20.0,18.0,28.62,SW,217,0.0,0.0,92,0.00,,,0.00,,2013-01-15 15:43:00,
2013-01-15 07:53:00,19.0,17.0,28.62,SW,217,0.0,0.0,90,0.00,,,0.00,,2013-01-15 15:53:00,
2013-01-15 08:02:00,18.0,16.0,28.63,SW,217,0.0,0.0,91,0.00,,,0.00,,2013-01-15 16:02:00,
2013-01-15 08:12:00,18.0,16.0,28.63,SW,217,0.0,0.0,91,0.00,,,0.00,,2013-01-15 16:12:00,
2013-01-15 08:22:00,18.0,16.0,28.63,SW,217,0.0,0.0,92,0.00,,,0.00,,2013-01-15 16:22:00,
2013-01-15 08:32:00,18.0,16.0,28.64,SW,216,0.0,0.0,92,0.00,,,0.00,,2013-01-15 16:32:00,
2013-01-15 08:42:00,18.0,16.0,28.64,SW,216,0.0,0.0,92,0.00,,,0.00,,2013-01-15 16:42:00,
2013-01-15 08:53:00,18.0,16.0,28.65,SW,216,0.0,0.0,92,0.00,,,0.00,,2013-01-15 16:53:00,
2013-01-15 09:03:00,18.0,16.0,28.66,SW,217,0.0,0.0,92,0.00,,,0.00,,2013-01-15 17:03:00,
2013-01-15 09:12:00,18.0,16.0,28.66,SW,217,0.0,0.0,92,0.00,,,0.00,,2013-01-15 17:12:00,
2013-01-15 09:22:00,19.0,17.0,28.66,SW,217,0.0,0.0,93,0.00,,,0.00,,2013-01-15 17:22:00,
2013-01-15 09:33:00,20.0,18.0,28.66,SW,217,0.0,1.0,92,0.00,,,0.00,,2013-01-15 17:33:00,
2013-01-15 09:42:00,20.0,18.0,28.66,SW,217,0.0,1.0,92,0.00,,,0.00,,2013-01-15 17:42:00,
2013-01-15 09:53:00,20.0,18.0,28.66,SW,217,0.0,1.0,90,0.00,,,0.00,,2013-01-15 17:53:00,
2013-01-15 10:02:00,20.0,18.0,28.66,SW,217,0.0,1.0,90,0.00,,,0.00,,2013-01-15 18:02:00,
2013-01-15 10:12:00,20.0,18.0,28.66,SW,217,0.0,1.0,90,0.00,,,0.00,,2013-01-15 18:12:00,
2013-01-15 10:22:00,21.0,18.0,28.65,SW,228,0.0,1.0,89,0.00,,,0.00,,2013-01-15 18:22:00,
2013-01-15 10:33:00,21.0,18.0,28.65,SW,228,0.0,1.0,89,0.00,,,0.00,,2013-01-15 18:33:00,
2013-01-15 10:42:00,21.0,18.0,28.65,SW,228,0.0,1.0,89,0.00,,,0.00,,2013-01-15 18:42:00,
2013-01-15 10:53:00,23.0,20.0,28.67,ESE,113,0.0,1.0,88,0.00,,,0.00,,2013-01-15 18:53:00,
2013-01-15 11:02:00,23.0,19.0,28.67,ESE,103,0.0,2.0,86,0.00,,,0.00,,2013-01-15 19:02:00,
2013-01-15 11:12:00,23.0,19.0,28.67,ESE,103,0.0,2.0,86,0.00,,,0.00,,2013-01-15 19:12:00,
2013-01-15 11:22:00,24.0,20.0,28.67,ESE,110,0.0,1.0,85,0.00,,,0.00,,2013-01-15 19:22:00,
2013-01-15 11:32:00,24.0,20.0,28.67,ESE,110,0.0,1.0,85,0.00,,,0.00,,2013-01-15 19:32:00,
2013-01-15 11:42:00,24.0,20.0,28.67,ESE,110,0.0,1.0,85,0.00,,,0.00,,2013-01-15 19:42:00,
2013-01-15 11:53:00,25.0,21.0,28.66,NW,311,0.0,1.0,84,0.00,,,0.00,,2013-01-15 19:53:00,
2013-01-15 12:02:00,25.0,21.0,28.66,ENE,70,0.0,2.0,85,0.00,,,0.00,,2013-01-15 20:02:00,
2013-01-15 12:12:00,25.0,21.0,28.66,ENE,70,0.0,2.0,85,0.00,,,0.00,,2013-01-15 20:12:00,
2013-01-15 12:22:00,26.0,22.0,28.61,ESE,108,2.0,4.0,84,0.00,,,0.00,,2013-01-15 20:22:00,
2013-01-15 12:33:00,26.0,22.0,28.65,East,97,0.0,2.0,84,0.00,,,0.00,,2013-01-15 20:33:00,
2013-01-15 12:43:00,26.0,22.0,28.65,East,97,0.0,2.0,84,0.00,,,0.00,,2013-01-15 20:43:00,
2013-01-15 12:52:00,26.0,21.0,28.65,ESE,105,1.0,5.0,82,0.00,,,0.00,,2013-01-15 20:52:00,
2013-01-15 13:02:00,26.0,21.0,28.65,SE,124,1.0,5.0,82,0.00,,,0.00,,2013-01-15 21:02:00,
2013-01-15 13:12:00,26.0,21.0,28.65,SE,124,1.0,5.0,82,0.00,,,0.00,,2013-01-15 21:12:00,
2013-01-15 13:22:00,27.0,22.0,28.65,NE,55,1.0,5.0,82,0.00,,,0.00,,2013-01-15 21:22:00,
2013-01-15 13:33:00,27.0,22.0,28.64,ENE,64,2.0,5.0,81,0.00,,,0.00,,2013-01-15 21:33:00,
2013-01-15 13:42:00,27.0,22.0,28.64,ENE,64,2.0,5.0,81,0.00,,,0.00,,2013-01-15 21:42:00,
2013-01-15 13:53:00,27.0,22.0,28.64,ENE,58,1.0,4.0,80,0.00,,,0.00,,2013-01-15 21:53:00,
2013-01-15 14:02:00,27.0,22.0,28.64,ENE,58,1.0,4.0,80,0.00,,,0.00,,2013-01-15 22:02:00,
2013-01-15 14:12:00,27.0,22.0,28.64,ENE,58,1.0,4.0,80,0.00,,,0.00,,2013-01-15 22:12:00,
2013-01-15 14:22:00,28.0,22.0,28.59,NE,41,1.0,4.0,79,0.00,,,0.00,,2013-01-15 22:22:00,
2013-01-15 14:32:00,27.0,22.0,28.64,NW,326,1.0,4.0,80,0.00,,,0.00,,2013-01-15 22:32:00,
2013-01-15 14:43:00,27.0,22.0,28.64,NW,326,1.0,4.0,80,0.00,,,0.00,,2013-01-15 22:43:00,
2013-01-15 14:52:00,28.0,22.0,28.58,East,101,1.0,3.0,79,0.00,,,0.00,,2013-01-15 22:52:00,
2013-01-15 15:02:00,28.0,23.0,28.64,NNE,16,1.0,3.0,80,0.00,,,0.00,,2013-01-15 23:02:00,
2013-01-15 15:12:00,28.0,23.0,28.64,NNE,16,1.0,3.0,80,0.00,,,0.00,,2013-01-15 23:12:00,
2013-01-15 15:22:00,28.0,23.0,28.59,NE,49,1.0,4.0,81,0.00,,,0.00,,2013-01-15 23:22:00,
2013-01-15 15:32:00,27.0,22.0,28.65,ENE,70,1.0,5.0,81,0.00,,,0.00,,2013-01-15 23:32:00,
2013-01-15 15:42:00,27.0,22.0,28.65,ENE,70,1.0,5.0,81,0.00,,,0.00,,2013-01-15 23:42:00,
2013-01-15 15:53:00,27.0,22.0,28.60,ENE,78,1.0,2.0,81,0.00,,,0.00,,2013-01-15 23:53:00,
2013-01-15 16:02:00,27.0,22.0,28.65,NNE,18,0.0,2.0,81,0.00,,,0.00,,2013-01-16 00:02:00,
2013-01-15 16:12:00,27.0,22.0,28.65,NNE,18,0.0,2.0,81,0.00,,,0.00,,2013-01-16 00:12:00,
2013-01-15 16:22:00,26.0,21.0,28.60,ENE,77,1.0,3.0,82,0.00,,,0.00,,2013-01-16 00:22:00,
2013-01-15 16:32:00,26.0,21.0,28.60,ENE,77,1.0,3.0,82,0.00,,,0.00,,2013-01-16 00:32:00,
2013-01-15 16:42:00,26.0,21.0,28.60,ENE,77,1.0,3.0,82,0.00,,,0.00,,2013-01-16 00:42:00,
2013-01-15 16:52:00,26.0,22.0,28.61,East,79,0.0,3.0,83,0.00,,,0.00,,2013-01-16 00:52:00,
2013-01-15 17:02:00,25.0,21.0,28.66,SE,128,0.0,2.0,84,0.00,,,0.00,,2013-01-16 01:02:00,
2013-01-15 17:12:00,25.0,21.0,28.66,SE,128,0.0,2.0,84,0.00,,,0.00,,2013-01-16 01:12:00,
2013-01-15 17:22:00,25.0,21.0,28.60,NNW,343,0.0,1.0,84,0.00,,,0.00,,2013-01-16 01:22:00,
2013-01-15 17:33:00,24.0,20.0,28.65,SW,214,0.0,1.0,84,0.00,,,0.00,,2013-01-16 01:33:00,
2013-01-15 17:42:00,24.0,20.0,28.65,SW,214,0.0,1.0,84,0.00,,,0.00,,2013-01-16 01:42:00,
2013-01-15 17:52:00,23.0,20.0,28.60,SSE,159,0.0,1.0,87,0.00,,,0.00,,2013-01-16 01:52:00,
2013-01-15 18:02:00,22.0,19.0,28.65,SSE,159,0.0,0.0,87,0.00,,,0.00,,2013-01-16 02:02:00,
2013-01-15 18:12:00,22.0,19.0,28.65,SSE,159,0.0,0.0,87,0.00,,,0.00,,2013-01-16 02:12:00,
2013-01-15 18:22:00,22.0,19.0,28.59,SSE,159,0.0,0.0,89,0.00,,,0.00,,2013-01-16 02:22:00,
2013-01-15 18:32:00,21.0,19.0,28.65,SSE,159,0.0,1.0,90,0.00,,,0.00,,2013-01-16 02:32:00,
2013-01-15 18:42:00,21.0,19.0,28.65,SSE,159,0.0,1.0,90,0.00,,,0.00,,2013-01-16 02:42:00,
2013-01-15 18:52:00,22.0,20.0,28.60,SSE,152,0.0,3.0,90,0.00,,,0.00,,2013-01-16 02:52:00,
2013-01-15 19:02:00,22.0,19.0,28.66,SE,133,0.0,1.0,89,0.00,,,0.00,,2013-01-16 03:02:00,
2013-01-15 19:11:00,22.0,19.0,28.66,SE,133,0.0,1.0,89,0.00,,,0.00,,2013-01-16 03:11:00,
2013-01-15 19:22:00,21.0,19.0,28.66,SSW,212,0.0,1.0,90,0.00,,,0.00,,2013-01-16 03:22:00,
2013-01-15 19:32:00,21.0,18.0,28.66,SSW,212,0.0,0.0,89,0.00,,,0.00,,2013-01-16 03:32:00,
2013-01-15 19:42:00,21.0,18.0,28.66,SSW,212,0.0,0.0,89,0.00,,,0.00,,2013-01-16 03:42:00,
2013-01-15 19:52:00,21.0,19.0,28.66,SSE,149,0.0,1.0,90,0.00,,,0.00,,2013-01-16 03:52:00,
2013-01-15 20:02:00,21.0,18.0,28.66,WSW,238,0.0,1.0,89,0.00,,,0.00,,2013-01-16 04:02:00,
2013-01-15 20:12:00,21.0,18.0,28.66,WSW,238,0.0,1.0,89,0.00,,,0.00,,2013-01-16 04:12:00,
2013-01-15 20:22:00,22.0,19.0,28.66,East,92,0.0,1.0,89,0.00,,,0.00,,2013-01-16 04:22:00,
2013-01-15 20:32:00,22.0,19.0,28.66,East,92,0.0,1.0,89,0.00,,,0.00,,2013-01-16 04:32:00,
2013-01-15 20:42:00,22.0,19.0,28.66,East,92,0.0,1.0,89,0.00,,,0.00,,2013-01-16 04:42:00,
2013-01-15 20:50:00,22.0,19.0,28.66,ESE,121,0.0,1.0,89,0.00,,,0.00,,2013-01-16 04:50:00,
2013-01-15 20:52:00,21.0,18.0,28.66,SE,146,0.0,1.0,88,0.00,,,0.00,,2013-01-16 04:52:00,
2013-01-15 21:03:00,21.0,19.0,28.66,SE,131,0.0,1.0,90,0.00,,,0.00,,2013-01-16 05:03:00,
2013-01-15 21:12:00,21.0,19.0,28.66,SE,131,0.0,1.0,90,0.00,,,0.00,,2013-01-16 05:12:00,
2013-01-15 21:22:00,22.0,19.0,28.66,ESE,121,0.0,1.0,89,0.00,,,0.00,,2013-01-16 05:22:00,
2013-01-15 21:32:00,22.0,19.0,28.66,ESE,121,0.0,1.0,89,0.00,,,0.00,,2013-01-16 05:32:00,
2013-01-15 21:42:00,22.0,19.0,28.66,ESE,121,0.0,1.0,89,0.00,,,0.00,,2013-01-16 05:42:00,
2013-01-15 22:02:00,21.0,19.0,28.65,SSW,201,0.0,1.0,90,0.00,,,0.00,,2013-01-16 06:02:00,
2013-01-15 22:12:00,21.0,19.0,28.65,SSW,201,0.0,1.0,90,0.00,,,0.00,,2013-01-16 06:12:00,
2013-01-15 22:22:00,21.0,18.0,28.64,South,187,0.0,1.0,89,0.00,,,0.00,,2013-01-16 06:22:00,
2013-01-15 22:32:00,21.0,18.0,28.64,SE,145,0.0,0.0,89,0.00,,,0.00,,2013-01-16 06:32:00,
2013-01-15 22:42:00,21.0,18.0,28.64,SE,145,0.0,0.0,89,0.00,,,0.00,,2013-01-16 06:42:00,
2013-01-15 22:52:00,21.0,19.0,28.64,SE,146,0.0,1.0,91,0.00,,,0.00,,2013-01-16 06:52:00,
2013-01-15 23:02:00,21.0,19.0,28.65,SSE,149,0.0,1.0,90,0.00,,,0.00,,2013-01-16 07:02:00,
2013-01-15 23:11:00,21.0,19.0,28.65,SSE,149,0.0,1.0,90,0.00,,,0.00,,2013-01-16 07:11:00,
2013-01-15 23:22:00,23.0,20.0,28.58,ESE,113,0.0,2.0,89,0.00,,,0.00,,2013-01-16 07:22:00,
2013-01-15 23:32:00,22.0,19.0,28.64,ESE,113,0.0,1.0,89,0.00,,,0.00,,2013-01-16 07:32:00,
2013-01-15 23:42:00,22.0,19.0,28.64,ESE,113,0.0,1.0,89,0.00,,,0.00,,2013-01-16 07:42:00,
2013-01-15 23:52:00,23.0,20.0,28.59,ESE,117,0.0,1.0,88,0.00,,,0.00,,2013-01-16 07:52:00,